CST,Max TemperatureF,Mean TemperatureF,Min TemperatureF,Max Dew PointF,MeanDew PointF,Min DewpointF,Max Humidity, Mean Humidity, Min Humidity, Max Sea Level PressureIn, Mean Sea Level PressureIn, Min Sea Level PressureIn, Max VisibilityMiles, Mean VisibilityMiles, Min VisibilityMiles, Max Wind SpeedMPH, Mean Wind SpeedMPH, Max Gust SpeedMPH,PrecipitationIn, CloudCover, Events, WindDirDegrees
2011-2-1,16,13,10,12,7,3,88,81,73,30.46,30.33,30.24,10,4,2,35,23,41,0.04,6,Snow,12
2011-2-2,10,3,-5,3,-8,-11,83,71,59,30.64,30.54,30.34,10,8,5,30,17,36,0.01,2,,312
2011-2-3,20,8,-5,7,0,-11,73,62,51,30.55,30.32,30.17,10,10,2,25,17,33,0.00,0,,225
2011-2-4,34,24,14,27,16,7,92,80,67,30.14,29.93,29.73,10,10,9,24,13,30,0.00,0,,229
2011-2-5,27,17,6,25,20,5,100,91,81,29.76,29.64,29.54,9,2,0,13,4,14,0.00,6,Fog,98
2011-2-6,30,25,20,26,23,18,100,87,74,30.17,29.91,29.73,10,4,0,22,12,24,0.08,8,Fog-Snow,6
2011-2-7,20,6,-9,16,2,-14,92,83,74,30.39,30.17,30.11,10,6,2,23,17,26,0.04,5,Snow,316
2011-2-8,1,-7,-15,-6,-12,-20,81,76,70,30.63,30.52,30.39,10,10,10,22,13,25,0.00,0,,292
2011-2-9,4,-1,-6,-4,-9,-12,82,74,65,30.43,30.35,30.26,10,10,10,18,12,22,0.00,0,,278
2011-2-10,12,-1,-15,4,-6,-18,91,68,44,30.25,30.02,29.93,10,10,4,20,8,22,0.00,1,,231
2011-2-11,34,18,2,30,22,2,96,87,78,30.03,29.89,29.81,10,8,1,21,11,25,T,7,Snow,252
2011-2-12,37,29,20,29,25,18,100,85,70,30.05,29.94,29.82,10,10,10,21,13,25,0.00,1,,239
2011-2-13,41,37,32,31,30,27,82,74,65,29.81,29.65,29.48,10,10,10,30,19,38,0.00,1,,255
2011-2-14,37,35,32,31,30,28,92,84,75,30.27,30.15,29.81,10,10,10,40,16,48,0.00,7,,289
2011-2-15,39,35,30,35,32,29,100,90,79,30.19,30.02,29.86,9,5,1,23,14,30,0.00,3,,177
2011-2-16,40,34,28,38,34,27,100,93,85,29.91,29.78,29.62,8,3,0,17,9,22,T,2,Fog-Rain,163
2011-2-17,56,45,33,50,40,26,100,80,59,29.86,29.52,29.37,10,5,0,26,14,33,0.00,2,Fog,230
2011-2-18,38,30,22,25,21,14,81,69,56,30.40,30.20,29.89,10,10,10,26,16,35,0.00,0,,301
2011-2-19,34,26,18,26,19,12,78,71,63,30.45,30.34,30.16,10,10,10,18,11,21,0.00,1,,97
2011-2-20,33,32,30,32,30,26,100,89,78,30.12,29.75,29.54,10,3,1,25,15,31,0.69,8,Rain-Snow-Thunderstorm,87
2011-2-21,31,26,20,30,26,16,100,92,84,30.05,29.76,29.68,10,3,0,21,10,23,0.11,8,Fog-Rain-Snow,62
2011-2-22,28,23,18,23,19,15,100,91,81,30.24,30.17,30.07,10,9,6,22,8,25,T,8,,153
2011-2-23,33,27,20,30,24,18,100,91,81,30.14,30.05,29.95,8,5,4,23,12,26,0.00,5,,185
2011-2-24,23,20,15,21,16,8,96,88,74,30.21,30.15,30.08,10,6,2,20,15,,0.00,7,,345
2011-2-25,15,10,4,7,3,0,83,78,73,30.32,30.27,30.18,10,8,2,16,14,20,T,7,Snow,334
2011-2-26,14,8,2,12,4,-5,92,82,72,30.26,29.96,29.79,10,5,1,10,5,13,0.03,8,Snow,72
2011-2-27,28,20,12,27,21,9,100,90,80,29.91,29.77,29.67,10,4,1,18,8,21,0.00,7,,143
2011-2-28,23,14,4,19,9,0,92,80,67,30.27,30.17,29.91,10,10,10,18,9,22,0.00,0,,310